Regional Weather Roundup
Issued by NWS

Home | Current Version | Previous Version | Graphics & Text | Print | Product List | Glossary On
Versions: 1 2 3 4 5 6 7 8 9 10 11 12 13 14 15 16 17 18 19 20 21 22 23 24 25 26 27 28 29 30 31 32 33 34 35 36 37 38 39 40 41 42 43 44 45 46 47 48 49 50
000
ASUS43 KDMX 242107
RWRIA

WEATHER ROUNDUP FOR IOWA
NATIONAL WEATHER SERVICE DES MOINES IA
300 PM CST SAT JAN 24 2015

NOTE: "FAIR" INDICATES FEW OR NO CLOUDS BELOW 12,000 FEET WITH NO
SIGNIFICANT WEATHER AND/OR OBSTRUCTIONS TO VISIBILITY.

* - THESE STATIONS ARE NOT NWS STATIONS...THUS NOT UNDER NWS
QUALITY CONTROL.  THEY ALSO DO NOT REPORT WEATHER SUCH
AS PRECIPITATION OR FOG.

IAZ001>003-012>014-020>022-031>034-043>046-242200-
   NORTHWEST IOWA

CITY           SKY/WX    TMP DP  RH WIND       PRES   REMARKS
CARROLL *      SUNNY     48  32  53 W14G21    29.64F
CHEROKEE *     CLOUDY    45  34  65 W9        29.64S
DENISON *      SUNNY     48  32  53 W14       29.63F
LE MARS *      MOSUNNY   46  34  61 W10       29.64F
ORANGE CITY *  SUNNY     45  36  70 W10       29.63S
SHELDON *      PTSUNNY   41  36  81 W10       29.61F
SIOUX CITY     CLOUDY    50  32  50 W10       29.66S
SPENCER        CLOUDY    42  33  70 W14       29.62F
STORM LAKE *   SUNNY     43  34  70 W13       29.63F
$$

IAZ055>058-069>071-079>083-090>094-242200-
   SOUTHWEST IOWA

CITY           SKY/WX    TMP DP  RH WIND       PRES   REMARKS
ATLANTIC *     SUNNY     50  30  46 W14       29.67F
AUDUBON *      SUNNY     50  30  46 W12G17    29.66F
CLARINDA *     MOSUNNY   54  30  40 SW9G16    29.71F
COUNCIL BLFS * SUNNY     54  32  43 SW13      29.66F
CRESTON *      SUNNY     52  30  43 W17       29.68F
HARLAN  *      SUNNY     50  32  50 SW15      29.69F
LAMONI         MOSUNNY   53  29  39 W18       29.69F
RED OAK *      SUNNY     52  30  43 SW10      29.69F
SHENANDOAH *   SUNNY     54  30  40 SW14      29.71F
$$

IAZ047>049-059>061-072>074-084-242200-
   CENTRAL IOWA

CITY           SKY/WX    TMP DP  RH WIND       PRES   REMARKS
AMES           PTSUNNY   48  33  56 W10       29.64F
ANKENY *       SUNNY     52  32  46 W10       29.65F
CHARITON *     SUNNY     52  30  43 W10G16    29.67F
DES MOINES     CLOUDY    52  31  44 W9        29.66F
GRINNELL*      MOSUNNY   48  32  53 W14       29.66S
KNOXVILLE *    SUNNY     50  30  46 W14G20    29.65F
MARSHALLTOWN   MOSUNNY   45  34  65 W10       29.64F
PELLA *        PTSUNNY   50  32  50 W7        29.68S
PERRY *          N/A     52  32  46 W13G20    29.65F
$$

IAZ004>006-015-016-023>025-035-036-242200-
   NORTH CENTRAL IOWA

CITY           SKY/WX    TMP DP  RH WIND       PRES   REMARKS
ALGONA *       SUNNY     41  37  87 SW10      29.61F
CLARION *      SUNNY     41  39  93 W9        29.62F
ESTHERVILLE    CLOUDY    38  33  82 SW16      29.60F WCI  29
FORT DODGE *   PTSUNNY   45  36  70 W8        29.63F
MASON CITY     PTSUNNY   41  35  79 SW9       29.61F
FOREST CITY *  SUNNY     41  32  70 SW9       29.60S
IOWA FALLS *     N/A     45  36  70 W10       29.63F
$$

IAZ007>011-017>019-026>030-037>042-050>054-066-242200-
   NORTHEAST IOWA

CITY           SKY/WX    TMP DP  RH WIND       PRES   REMARKS
CEDAR RAPIDS   SUNNY     49  35  58 W13       29.64F
CHARLES CITY * SUNNY     45  37  76 W8        29.61F
CLINTON *      SUNNY     46  36  66 W12       29.67F
DECORAH *      SUNNY     41  36  81 W8G15     29.61F
DUBUQUE        SUNNY     43  35  73 W10       29.63F
MONTICELLO *   SUNNY     46  37  71 W8        29.64S
OELWEIN *      SUNNY     45  37  76 W9        29.63F
WATERLOO       SUNNY     47  35  63 W10       29.63F
$$

IAZ064-065-067-068-078-242200-
   EAST CENTRAL IOWA

CITY           SKY/WX    TMP DP  RH WIND       PRES   REMARKS
DAVENPORT      SUNNY     46  34  62 W16       29.66F
IOWA CITY      SUNNY     49  34  56 W9        29.67F
MT. PLEASANT * SUNNY     50  34  53 SW9       29.68F
MUSCATINE *    SUNNY     50  34  53 W13       29.67F
QUAD CITIES    SUNNY     47  35  63 SW10      29.66F
$$

IAZ062-063-075>077-085>089-095>099-242200-
   SOUTHEAST IOWA

CITY           SKY/WX    TMP DP  RH WIND       PRES   REMARKS
BURLINGTON     SUNNY     47  36  65 SW9       29.68F
FAIRFIELD *    SUNNY     52  34  50 W12       29.67F
FORT MADISON * SUNNY     52  37  58 SW12G17   29.69F
KEOKUK *       SUNNY     50  36  57 SW12      29.69F
OSKALOOSA *      N/A     52  32  46 W14       29.66F
CENTERVILLE *  SUNNY     52  32  46 W15       29.70F
OTTUMWA        MOSUNNY   53  32  44 W14       29.66F
WASHINGTON *   SUNNY     52  36  54 W13       29.66F
$$

ABBREVIATIONS USED IN REMARKS
   TC - TEMPERATURES IN CELSIUS
  WCI - WIND CHILL INDEX
   HX - HEAT INDEX
  VSB - VISIBILITY
$$




USA.gov is the U.S. government's official web portal to all federal, state and local government web resources and services.